FALCON 9 DEB (46385 NORAD) Tracking and Keplerian Element Data

This shows tracking and keplerian element data for the satellite.

Feedback or suggestion? Click here.




ElementValue
Catalog46385
NameFALCON 9 DEB
Epoch Orbit400
Epoch Day268.44680348
Epoch Year2020
RAAN322.4815
Inclination52.997
Eccentricity0.0055663
Argument of Perigee121.1485
Mean Anonmoly239.5027
Mean Motion16.16510961
Decay Rate0.01093777
L11 46385U 20062BN 20268.44680348 .01093777 11738-4 52981-3 0 9997
L22 46385 52.9970 322.4815 0055663 121.1485 239.5027 16.16510961 4000

Live tracking and technical data element details for FALCON 9 DEB (NORAD 46385). FALCON 9 DEB can be tracked NOW for your location showing map with azimuth and elevation plus other details from your city location.

Track the satellite on the map from your city or location and see movement details for azimuth, elevation, latitude, longitude, range, height, and movement on the map or in text.







IsCatalogInMostPopularTable: catalog: 46385, numindb: 1
Update: records affected: 1



GetName: 46385 FALCON 9 DEB

Hit Count: updated at: Sat, 26 Sep 2020 15:00:59 GMT